RADARSAT-2

Last updated on Mon Sep 07 2026 00:02:45 GMT+0000 (Coordinated Universal Time)

1 32382U 07061A 26249.62386972 .00000106 00000+0 57919-4 0 9999 2 32382 98.5824 255.4042 0001259 82.2626 277.8699 14.29981263977591
UTC large
Height (km)
Speed (km/s)
/
Latitude / Longitude
Inclination (degrees)
Orbital Period (minutes)
Azimuth
Elevation
Range (km)
Doppler Factor

Next 0 passes for location: London (51.5072 / 0.1276)

No passes found over London.
RADARSAT-2